• In Hungary
  • List of Countries
  • For 7 days
  • Water Temperature
  • Satellite Maps
  • Weather Map
  • News
  • Weather Widgets
  • user-avatar
    Login

    Hourly Weather Biesowice

    Today, 19 October, Friday

    Time Temperature Precipitation Wind Pressure Humidity
    00:00 +12°C° 0 mm 2 mps 759 mmHg 95%
    01:00 +10°C° 0 mm 2 mps 759 mmHg 95%
    02:00 +10°C° 0 mm 2 mps 759 mmHg 94%
    03:00 +10°C° 0 mm 2 mps 759 mmHg 93%
    04:00 +9°C° 0 mm 2 mps 759 mmHg 92%
    05:00 +9°C° 0 mm 2 mps 760 mmHg 90%
    06:00 +10°C° 0 mm 1 mps 760 mmHg 89%
    07:00 +10°C° 0 mm 1 mps 760 mmHg 87%
    08:00 +11°C° 0 mm 1 mps 760 mmHg 77%
    09:00 +13°C° 0 mm 1 mps 760 mmHg 66%
    10:00 +14°C° 0 mm 1 mps 761 mmHg 56%
    11:00 +15°C° 0 mm 1 mps 761 mmHg 52%
    12:00 +15°C° 0 mm 2 mps 761 mmHg 49%
    13:00 +16°C° 0 mm 2 mps 761 mmHg 46%
    14:00 +15°C° 0 mm 2 mps 761 mmHg 49%
    15:00 +15°C° 0 mm 2 mps 761 mmHg 52%
    16:00 +14°C° 0 mm 1 mps 760 mmHg 55%
    17:00 +13°C° 0 mm 1 mps 761 mmHg 59%
    18:00 +11°C° 0 mm 1 mps 761 mmHg 63%
    19:00 +10°C° 0 mm 1 mps 761 mmHg 67%
    20:00 +10°C° 0 mm 1 mps 761 mmHg 68%
    21:00 +9°C° 0 mm 1 mps 761 mmHg 70%
    22:00 +9°C° 0 mm 1 mps 761 mmHg 71%
    23:00 +9°C° 0 mm 1 mps 761 mmHg 72%

    Tomorrow, 20 October, Saturday

    Time Temperature Precipitation Wind Pressure Humidity
    00:00 +9°C° 0 mm 1 mps 761 mmHg 73%
    01:00 +7°C° 0 mm 2 mps 761 mmHg 74%
    02:00 +7°C° 0 mm 2 mps 761 mmHg 76%
    03:00 +7°C° 0 mm 2 mps 761 mmHg 78%
    04:00 +8°C° 0 mm 2 mps 761 mmHg 80%
    05:00 +7°C° 0 mm 2 mps 761 mmHg 82%
    06:00 +7°C° 0 mm 2 mps 762 mmHg 84%
    07:00 +7°C° 0 mm 3 mps 762 mmHg 87%
    08:00 +8°C° 0 mm 3 mps 762 mmHg 82%
    09:00 +10°C° 0 mm 4 mps 762 mmHg 76%
    10:00 +11°C° 0 mm 4 mps 762 mmHg 71%
    11:00 +10°C° 0 mm 5 mps 762 mmHg 68%
    12:00 +10°C° 0 mm 5 mps 762 mmHg 64%
    13:00 +12°C° 0 mm 5 mps 762 mmHg 60%
    14:00 +10°C° 0.1 mm 5 mps 762 mmHg 64%
    15:00 +10°C° 0.1 mm 5 mps 762 mmHg 68%
    16:00 +10°C° 0.1 mm 5 mps 762 mmHg 73%
    17:00 +9°C° 0.1 mm 5 mps 762 mmHg 75%
    18:00 +9°C° 0.1 mm 5 mps 762 mmHg 77%
    19:00 +9°C° 0.1 mm 5 mps 762 mmHg 79%
    20:00 +10°C° 0 mm 4 mps 762 mmHg 82%
    21:00 +8°C° 0 mm 4 mps 761 mmHg 84%
    22:00 +7°C° 0 mm 4 mps 761 mmHg 86%
    23:00 +8°C° 0 mm 3 mps 761 mmHg 88%

    Day after tomorrow, 21 October, Sunday

    Time Temperature Precipitation Wind Pressure Humidity
    00:00 +8°C° 0 mm 3 mps 761 mmHg 89%
    01:00 +8°C° 0 mm 3 mps 761 mmHg 90%
    02:00 +7°C° 0 mm 3 mps 761 mmHg 91%
    03:00 +7°C° 0 mm 3 mps 762 mmHg 91%
    04:00 +7°C° 0 mm 3 mps 762 mmHg 92%
    05:00 +7°C° 0 mm 2 mps 762 mmHg 92%
    06:00 +7°C° 0 mm 2 mps 762 mmHg 92%
    07:00 +7°C° 0 mm 2 mps 762 mmHg 93%
    08:00 +8°C° 0 mm 2 mps 762 mmHg 85%
    09:00 +10°C° 0 mm 2 mps 762 mmHg 77%
    10:00 +13°C° 0 mm 2 mps 762 mmHg 70%
    11:00 +13°C° 0 mm 2 mps 762 mmHg 66%
    12:00 +14°C° 0 mm 2 mps 762 mmHg 62%
    13:00 +14°C° 0 mm 2 mps 762 mmHg 59%
    14:00 +14°C° 0 mm 2 mps 762 mmHg 62%
    15:00 +13°C° 0 mm 2 mps 762 mmHg 65%
    16:00 +13°C° 0 mm 1 mps 761 mmHg 68%
    17:00 +12°C° 0 mm 1 mps 761 mmHg 74%
    18:00 +11°C° 0 mm 1 mps 761 mmHg 79%
    19:00 +10°C° 0 mm 1 mps 761 mmHg 85%
    20:00 +8°C° 0 mm 2 mps 761 mmHg 87%
    21:00 +8°C° 0 mm 2 mps 761 mmHg 88%
    22:00 +8°C° 0 mm 3 mps 761 mmHg 90%
    23:00 +8°C° 0 mm 3 mps 761 mmHg 91%

    22 October, Monday

    Time Temperature Precipitation Wind Pressure Humidity
    00:00 +8°C° 0 mm 3 mps 761 mmHg 91%
    01:00 +8°C° 0 mm 3 mps 760 mmHg 92%
    02:00 +7°C° 0 mm 4 mps 760 mmHg 91%
    03:00 +7°C° 0 mm 4 mps 759 mmHg 91%
    04:00 +7°C° 0 mm 4 mps 759 mmHg 90%
    05:00 +7°C° 0 mm 5 mps 759 mmHg 90%
    06:00 +7°C° 0 mm 5 mps 759 mmHg 89%
    07:00 +8°C° 0 mm 5 mps 759 mmHg 89%
    08:00 +8°C° 0.3 mm 5 mps 759 mmHg 88%
    09:00 +8°C° 0.3 mm 5 mps 759 mmHg 88%
    10:00 +9°C° 0.3 mm 5 mps 759 mmHg 88%
    11:00 +9°C° 0.3 mm 5 mps 759 mmHg 85%
    12:00 +9°C° 0.3 mm 5 mps 759 mmHg 82%
    13:00 +8°C° 0.3 mm 5 mps 759 mmHg 79%
    14:00 +8°C° 0.1 mm 5 mps 759 mmHg 75%
    15:00 +8°C° 0.1 mm 4 mps 759 mmHg 72%
    16:00 +8°C° 0.1 mm 4 mps 759 mmHg 69%
    17:00 +8°C° 0 mm 4 mps 759 mmHg 71%
    18:00 +7°C° 0 mm 4 mps 760 mmHg 73%
    19:00 +7°C° 0 mm 4 mps 760 mmHg 75%
    20:00 +7°C° 0 mm 4 mps 760 mmHg 76%
    21:00 +6°C° 0 mm 4 mps 760 mmHg 76%
    22:00 +6°C° 0 mm 4 mps 760 mmHg 77%
    23:00 +6°C° 0 mm 4 mps 760 mmHg 79%

    23 October, Tuesday

    Time Temperature Precipitation Wind Pressure Humidity
    00:00 +5°C° 0 mm 3 mps 759 mmHg 80%
    01:00 +5°C° 0 mm 3 mps 759 mmHg 82%
    02:00 +5°C° 0 mm 3 mps 759 mmHg 83%
    03:00 +5°C° 0 mm 3 mps 758 mmHg 84%
    04:00 +5°C° 0 mm 3 mps 758 mmHg 85%
    05:00 +5°C° 0 mm 4 mps 757 mmHg 85%
    06:00 +5°C° 0 mm 5 mps 757 mmHg 85%
    07:00 +4°C° 0 mm 6 mps 756 mmHg 84%
    08:00 +5°C° 0.5 mm 7 mps 755 mmHg 82%
    09:00 +5°C° 0.5 mm 8 mps 755 mmHg 80%
    10:00 +6°C° 0.5 mm 9 mps 754 mmHg 78%
    11:00 +6°C° 1 mm 8 mps 754 mmHg 79%
    12:00 +6°C° 1 mm 8 mps 753 mmHg 81%
    13:00 +6°C° 1 mm 8 mps 752 mmHg 83%
    14:00 +7°C° 0.4 mm 8 mps 752 mmHg 80%
    15:00 +7°C° 0.4 mm 8 mps 751 mmHg 76%
    16:00 +8°C° 0.4 mm 7 mps 751 mmHg 73%
    17:00 +8°C° 0 mm 7 mps 751 mmHg 72%
    18:00 +7°C° 0 mm 6 mps 751 mmHg 72%
    19:00 +6°C° 0 mm 5 mps 751 mmHg 71%
    20:00 +6°C° 0 mm 5 mps 751 mmHg 73%
    21:00 +6°C° 0 mm 4 mps 750 mmHg 75%
    22:00 +6°C° 0 mm 4 mps 750 mmHg 76%
    23:00 +7°C° 0.8 mm 5 mps 749 mmHg 81%

    24 October, Wednesday

    Time Temperature Precipitation Wind Pressure Humidity
    00:00 +7°C° 0.8 mm 6 mps 747 mmHg 86%
    01:00 +7°C° 0.8 mm 8 mps 746 mmHg 90%
    02:00 +8°C° 1 mm 9 mps 745 mmHg 89%
    03:00 +9°C° 1 mm 10 mps 743 mmHg 88%
    04:00 +11°C° 1 mm 11 mps 742 mmHg 87%
    05:00 +11°C° 0.1 mm 11 mps 741 mmHg 85%
    06:00 +11°C° 0.1 mm 11 mps 741 mmHg 83%
    07:00 +11°C° 0.1 mm 11 mps 741 mmHg 81%
    08:00 +12°C° 0.2 mm 11 mps 741 mmHg 76%
    09:00 +12°C° 0.2 mm 11 mps 741 mmHg 70%
    10:00 +12°C° 0.2 mm 12 mps 741 mmHg 65%
    11:00 +12°C° 0 mm 12 mps 742 mmHg 59%
    12:00 +10°C° 0 mm 12 mps 742 mmHg 54%
    13:00 +10°C° 0 mm 13 mps 743 mmHg 48%
    14:00 +10°C° 0 mm 12 mps 743 mmHg 48%
    15:00 +9°C° 0 mm 12 mps 744 mmHg 48%
    16:00 +8°C° 0 mm 11 mps 745 mmHg 48%
    17:00 +8°C° 0 mm 11 mps 746 mmHg 51%
    18:00 +7°C° 0 mm 10 mps 748 mmHg 53%
    19:00 +7°C° 0 mm 9 mps 749 mmHg 55%
    20:00 +6°C° 0 mm 9 mps 750 mmHg 55%
    21:00 +6°C° 0 mm 8 mps 751 mmHg 56%
    22:00 +5°C° 0 mm 7 mps 752 mmHg 56%
    23:00 +5°C° 0 mm 7 mps 752 mmHg 57%
    Show more